Regional Weather Roundup
Issued by NWS Goodland, KS

Home | Current Version | Previous Version | Text Only | Print | Product List | Glossary On
Versions: 1 2 3 4 5 6 7 8 9 10 11 12 13 14 15 16 17 18 19 20 21 22 23 24 25 26 27 28 29 30 31 32 33 34 35 36 37 38 39 40 41 42 43 44 45 46 47 48 49 50
000
ASUS43 KGLD 232308
RWRGLD

GOODLAND FORECAST AREA HOURLY WEATHER ROUNDUP
NATIONAL WEATHER SERVICE GOODLAND KS
500 PM MDT THU MAR 23 2017

...OFFICIAL OBSERVATIONS...

CITY           SKY/WX    TMP DP  RH WIND       PRES   REMARKS
GOODLAND KS    SUNNY     85  15   7 S35G48    29.46F
HILL CITY KS   PTSUNNY   82  51  34 S28G44    29.53F
IMPERIAL NEB   MOSUNNY   75  45  34 E15       29.48F
MCCOOK NEB     PTSUNNY   83  48  29 S13       29.46F
AKRON CO       CLOUDY    75  13   9 SW17G36   29.52F
BURLINGTON CO  SUNNY     80  18  10 S31G44    29.50F
LIMON CO       CLOUDY    66  23  19 W10G33    29.58R
$$

...UNOFFICIAL OBSERVATIONS...

CITY           SKY/WX    TMP DP  RH WIND       PRES   REMARKS
LENORA KS        N/A     82  32  16 S20         N/A
NORTON KS      SUNNY     81  45  28 SE24G31   29.50F
SHARON SPRINGS   N/A     83  25  12 S33G49      N/A
TRENTON NEB      N/A     84  32  15 SW7         N/A
YUMA CO        FAIR      77  19  11 S9G16     29.49F
$$



USA.gov is the U.S. government's official web portal to all federal, state and local government web resources and services.